OPS 4682 DEB, 38412

Orbit data source: Space-Track

OPS 4682 DEB, 38412 is space debris in LEO originally from a launch on Sat, 03 Apr 1965 UTC launched from the Air Force Western Test Range (AFWTR). Debris objects in space refer to the collection of defunct objects orbiting the Earth. Examples of debris include non-operational satellites, rocket bodies, and fragments generated from explosions, collisions, or faulty payload assembly.

Loading next visibility...
Identifier
38412, 1965-027DR
Orbit
LEO
Country
Flag of USUS
Related business
Manufacturer
Unknown
Mission
Spacecraft
Bus & Motor
Unknown
Mass
Unknown
Launch date (UTC)
1965-04-03 (61 years ago)
Launch vehicle
Unknown
Launch site
Air Force Western Test Range (AFWTR)
Object type
Payload
Rocket body
Debris
Shape & HBR
Unknown shape, 0.1 m
Radar Cross Section
Medium (>0.1 m² and <1 m²)

Expand to show TLE details & history
Last TLE update: 10 hours ago

TLE from 10 hours ago
0 OPS 4682 DEB
1 38412U 65027DR  26208.40192534  .00000114  00000-0  37883-3 0  9992
2 38412  90.2371   4.0241 0033167 148.3069 212.0056 12.94855743635866
Epoch: 2026-07-27T09:38Z
TLE epoch observation values (Epoch: 2026-07-27T09:38:46.349Z)
Latitude
-0°
Longitude
-85.75504°
Altitude
1,306.758 km
Speed
7.193 km/s
True Right ascension
00h 16m 05s
True Declination
0° 00' 00"
Sunlit
Object was in daylight at epoch
Visualization orbit readout
Latitude
Unknown
Longitude
Unknown
Altitude
Unknown
Speed
Unknown
Apparent Right ascension
Unknown
Apparent Declination
Unknown
Sunlit
N/A
Visualization observer readout
Local Sidereal Time
09:16:51
Azimuth
Unknown
Elevation
Unknown
Doppler factor
Unknown
Orbital elements
Apogee altitude
1,304.841 km
Perigee altitude
1,254.046 km
Semi-major axis
7,657.58 km
Eccentricity
0.00332
Inclination
90.2371°
RAAN
4.0241°
Arg. of periapsis
148.3069°
True anomaly
211.80487°
Mean anomaly
212.0056°
Eccentric anomaly
211.90516°
Mean motion
3.23896 °/min
Orbital period
111.15 mins
BSTAR
0.00037883
Loading maneuver chart data...
Computing Atmospheric mass density...
Loading historical data...
Loading historical data...
Loading historical data...
Loading historical data...
Loading historical data...
Loading historical data...
Loading historical data...

Documentation

Showing up to 5 results
|